Year,Month,Day,Hour,Minute,Value (Times are PST for temperature in C)
2010,06,29,00,00,13.20
2010,06,29,00,01,13.20
2010,06,29,00,02,13.20
2010,06,29,00,03,13.20
2010,06,29,00,04,13.20
2010,06,29,00,05,13.20
2010,06,29,00,06,13.20
2010,06,29,00,07,13.10
2010,06,29,00,08,13.10
2010,06,29,00,09,13.10
2010,06,29,00,10,13.10
2010,06,29,00,11,13.10
2010,06,29,00,12,13.10
2010,06,29,00,13,13.00
2010,06,29,00,14,13.00
2010,06,29,00,15,13.00
2010,06,29,00,16,13.00
2010,06,29,00,17,13.00
2010,06,29,00,18,13.00
2010,06,29,00,19,13.00
2010,06,29,00,20,12.90
2010,06,29,00,21,12.90
2010,06,29,00,22,12.90
2010,06,29,00,23,12.90
2010,06,29,00,24,12.90
2010,06,29,00,25,12.80
2010,06,29,00,26,12.80
2010,06,29,00,27,12.80
2010,06,29,00,28,12.80
2010,06,29,00,29,12.80
2010,06,29,00,30,12.80
2010,06,29,00,31,12.80
2010,06,29,00,32,12.80
2010,06,29,00,33,12.80
2010,06,29,00,34,12.80
2010,06,29,00,35,12.80
2010,06,29,00,36,12.80
2010,06,29,00,37,12.80
2010,06,29,00,38,12.80
2010,06,29,00,39,12.70
2010,06,29,00,40,12.70
2010,06,29,00,41,12.70
2010,06,29,00,42,12.70
2010,06,29,00,43,12.70
2010,06,29,00,44,12.70
2010,06,29,00,45,12.70
2010,06,29,00,46,12.60
2010,06,29,00,47,12.60
2010,06,29,00,48,12.60
2010,06,29,00,49,12.60
2010,06,29,00,50,12.60
2010,06,29,00,51,12.60
2010,06,29,00,52,12.60
2010,06,29,00,53,12.60
2010,06,29,00,54,12.60
2010,06,29,00,55,12.60
2010,06,29,00,56,12.60
2010,06,29,00,57,12.60
2010,06,29,00,58,12.60
2010,06,29,00,59,12.50
2010,06,29,01,00,12.50
2010,06,29,01,01,12.50
2010,06,29,01,02,12.50
2010,06,29,01,03,12.50
2010,06,29,01,04,12.50
2010,06,29,01,05,12.50
2010,06,29,01,06,12.50
2010,06,29,01,07,12.50
2010,06,29,01,08,12.50
2010,06,29,01,09,12.40
2010,06,29,01,10,12.40
2010,06,29,01,11,12.40
2010,06,29,01,12,12.40
2010,06,29,01,13,12.40
2010,06,29,01,14,12.40
2010,06,29,01,15,12.40
2010,06,29,01,16,12.40
2010,06,29,01,17,12.40
2010,06,29,01,18,12.40
2010,06,29,01,19,12.40
2010,06,29,01,20,12.40
2010,06,29,01,21,12.40
2010,06,29,01,22,12.40
2010,06,29,01,23,12.40
2010,06,29,01,24,12.40
2010,06,29,01,25,12.30
2010,06,29,01,26,12.30
2010,06,29,01,27,12.30
2010,06,29,01,28,12.30
2010,06,29,01,29,12.30
2010,06,29,01,30,12.30
2010,06,29,01,31,12.30
2010,06,29,01,32,12.30
2010,06,29,01,33,12.30
2010,06,29,01,34,12.20
2010,06,29,01,35,12.20
2010,06,29,01,36,12.20
2010,06,29,01,37,12.20
2010,06,29,01,38,12.10
2010,06,29,01,39,12.10
2010,06,29,01,40,12.10
2010,06,29,01,41,12.10
2010,06,29,01,42,12.00
2010,06,29,01,43,12.00
2010,06,29,01,44,12.00
2010,06,29,01,45,12.00
2010,06,29,01,46,11.90
2010,06,29,01,47,11.90
2010,06,29,01,48,11.90
2010,06,29,01,49,11.80
2010,06,29,01,50,11.80
2010,06,29,01,51,11.80
2010,06,29,01,52,11.80
2010,06,29,01,53,11.80
2010,06,29,01,54,11.80
2010,06,29,01,55,11.80
2010,06,29,01,56,11.80
2010,06,29,01,57,11.80
2010,06,29,01,58,11.80
2010,06,29,01,59,11.80
2010,06,29,02,00,11.80
2010,06,29,02,01,11.80
2010,06,29,02,02,11.80
2010,06,29,02,03,11.80
2010,06,29,02,04,11.80
2010,06,29,02,05,11.70
2010,06,29,02,06,11.70
2010,06,29,02,07,11.70
2010,06,29,02,08,11.70
2010,06,29,02,09,11.70
2010,06,29,02,10,11.70
2010,06,29,02,11,11.70
2010,06,29,02,12,11.70
2010,06,29,02,13,11.70
2010,06,29,02,14,11.60
2010,06,29,02,15,11.60
2010,06,29,02,16,11.60
2010,06,29,02,17,11.70
2010,06,29,02,18,11.60
2010,06,29,02,19,11.60
2010,06,29,02,20,11.60
2010,06,29,02,21,11.60
2010,06,29,02,22,11.60
2010,06,29,02,23,11.60
2010,06,29,02,24,11.60
2010,06,29,02,25,11.60
2010,06,29,02,26,11.60
2010,06,29,02,27,11.60
2010,06,29,02,28,11.60
2010,06,29,02,29,11.60
2010,06,29,02,30,11.60
2010,06,29,02,31,11.60
2010,06,29,02,32,11.60
2010,06,29,02,33,11.60
2010,06,29,02,34,11.60
2010,06,29,02,35,11.60
2010,06,29,02,36,11.60
2010,06,29,02,37,11.60
2010,06,29,02,38,11.60
2010,06,29,02,39,11.60
2010,06,29,02,40,11.60
2010,06,29,02,41,11.60
2010,06,29,02,42,11.60
2010,06,29,02,43,11.60
2010,06,29,02,44,11.50
2010,06,29,02,45,11.40
2010,06,29,02,46,11.40
2010,06,29,02,47,11.40
2010,06,29,02,48,11.40
2010,06,29,02,49,11.40
2010,06,29,02,50,11.40
2010,06,29,02,51,11.40
2010,06,29,02,52,11.40
2010,06,29,02,53,11.40
2010,06,29,02,54,11.40
2010,06,29,02,55,11.30
2010,06,29,02,56,11.30
2010,06,29,02,57,11.30
2010,06,29,02,58,11.30
2010,06,29,02,59,11.20
2010,06,29,03,00,11.20
2010,06,29,03,01,11.20
2010,06,29,03,02,11.20
2010,06,29,03,03,11.20
2010,06,29,03,04,11.20
2010,06,29,03,05,11.30
2010,06,29,03,06,11.30
2010,06,29,03,07,11.30
2010,06,29,03,08,11.30
2010,06,29,03,09,11.30
2010,06,29,03,10,11.30
2010,06,29,03,11,11.30
2010,06,29,03,12,11.20
2010,06,29,03,13,11.20
2010,06,29,03,14,11.10
2010,06,29,03,15,11.10
2010,06,29,03,16,11.00
2010,06,29,03,17,10.90
2010,06,29,03,18,10.90
2010,06,29,03,19,10.80
2010,06,29,03,20,10.80
2010,06,29,03,21,10.70
2010,06,29,03,22,10.70
2010,06,29,03,23,10.60
2010,06,29,03,24,10.60
2010,06,29,03,25,10.40
2010,06,29,03,26,10.40
2010,06,29,03,27,10.40
2010,06,29,03,28,10.30
2010,06,29,03,29,10.30
2010,06,29,03,30,10.20
2010,06,29,03,31,10.20
2010,06,29,03,32,10.20
2010,06,29,03,33,10.10
2010,06,29,03,34,10.10
2010,06,29,03,35,10.10
2010,06,29,03,36,10.10
2010,06,29,03,37,10.10
2010,06,29,03,38,10.10
2010,06,29,03,39,10.10
2010,06,29,03,40,10.10
2010,06,29,03,41,10.10
2010,06,29,03,42,10.10
2010,06,29,03,43,10.10
2010,06,29,03,44,10.10
2010,06,29,03,45,10.10
2010,06,29,03,46,10.10
2010,06,29,03,47,10.10
2010,06,29,03,48,10.10
2010,06,29,03,49,10.10
2010,06,29,03,50,10.10
2010,06,29,03,51,10.10
2010,06,29,03,52,10.10
2010,06,29,03,53,10.00
2010,06,29,03,54,9.90
2010,06,29,03,55,9.90
2010,06,29,03,56,9.90
2010,06,29,03,57,9.90
2010,06,29,03,58,9.90
2010,06,29,03,59,9.90
2010,06,29,04,00,9.90
2010,06,29,04,01,9.90
2010,06,29,04,02,9.80
2010,06,29,04,03,9.80
2010,06,29,04,04,9.80
2010,06,29,04,05,9.70
2010,06,29,04,06,9.70
2010,06,29,04,07,9.70
2010,06,29,04,08,9.60
2010,06,29,04,09,9.60
2010,06,29,04,10,9.50
2010,06,29,04,11,9.50
2010,06,29,04,12,9.50
2010,06,29,04,13,9.40
2010,06,29,04,14,9.40
2010,06,29,04,15,9.30
2010,06,29,04,16,9.30
2010,06,29,04,17,9.30
2010,06,29,04,18,9.30
2010,06,29,04,19,9.30
2010,06,29,04,20,9.30
2010,06,29,04,21,9.30
2010,06,29,04,22,9.20
2010,06,29,04,23,9.20
2010,06,29,04,24,9.20
2010,06,29,04,25,9.20
2010,06,29,04,26,9.20
2010,06,29,04,27,9.20
2010,06,29,04,28,9.20
2010,06,29,04,29,9.20
2010,06,29,04,30,9.20
2010,06,29,04,31,9.20
2010,06,29,04,32,9.20
2010,06,29,04,33,9.20
2010,06,29,04,34,9.20
2010,06,29,04,35,9.20
2010,06,29,04,36,9.20
2010,06,29,04,37,9.20
2010,06,29,04,38,9.30
2010,06,29,04,39,9.30
2010,06,29,04,40,9.30
2010,06,29,04,41,9.30
2010,06,29,04,42,9.30
2010,06,29,04,43,9.30
2010,06,29,04,44,9.30
2010,06,29,04,45,9.30
2010,06,29,04,46,9.20
2010,06,29,04,47,9.20
2010,06,29,04,48,9.20
2010,06,29,04,49,9.20
2010,06,29,04,50,9.20
2010,06,29,04,51,9.20
2010,06,29,04,52,9.20
2010,06,29,04,53,9.20
2010,06,29,04,54,9.10
2010,06,29,04,55,9.10
2010,06,29,04,56,9.10
2010,06,29,04,57,9.10
2010,06,29,04,58,9.10
2010,06,29,04,59,9.10
2010,06,29,05,00,9.00
2010,06,29,05,01,9.00
2010,06,29,05,02,9.00
2010,06,29,05,03,9.00
2010,06,29,05,04,9.00
2010,06,29,05,05,9.00
2010,06,29,05,06,9.00
2010,06,29,05,07,9.00
2010,06,29,05,08,9.00
2010,06,29,05,09,9.00
2010,06,29,05,10,9.00
2010,06,29,05,11,9.00
2010,06,29,05,12,9.00
2010,06,29,05,13,9.00
2010,06,29,05,14,8.90
2010,06,29,05,15,8.90
2010,06,29,05,16,8.90
2010,06,29,05,17,8.90
2010,06,29,05,18,9.00
2010,06,29,05,19,9.00
2010,06,29,05,20,9.00
2010,06,29,05,21,9.00
2010,06,29,05,22,9.00
2010,06,29,05,23,9.10
2010,06,29,05,24,9.10
2010,06,29,05,25,9.20
2010,06,29,05,26,9.20
2010,06,29,05,27,9.20
2010,06,29,05,28,9.20
2010,06,29,05,29,9.20
2010,06,29,05,30,9.20
2010,06,29,05,31,9.20
2010,06,29,05,32,9.20
2010,06,29,05,33,9.20
2010,06,29,05,34,9.20
2010,06,29,05,35,9.20
2010,06,29,05,36,9.20
2010,06,29,05,37,9.20
2010,06,29,05,38,9.30
2010,06,29,05,39,9.30
2010,06,29,05,40,9.30
2010,06,29,05,41,9.30
2010,06,29,05,42,9.30
2010,06,29,05,43,9.30
2010,06,29,05,44,9.40
2010,06,29,05,45,9.40
2010,06,29,05,46,9.40
2010,06,29,05,47,9.40
2010,06,29,05,48,9.40
2010,06,29,05,49,9.30
2010,06,29,05,50,9.30
2010,06,29,05,51,9.30
2010,06,29,05,52,9.20
2010,06,29,05,53,9.20
2010,06,29,05,54,9.20
2010,06,29,05,55,9.20
2010,06,29,05,56,9.20
2010,06,29,05,57,9.20
2010,06,29,05,58,9.20
2010,06,29,05,59,9.20
2010,06,29,06,00,9.20
2010,06,29,06,01,9.20
2010,06,29,06,02,9.10
2010,06,29,06,03,9.10
2010,06,29,06,04,9.10
2010,06,29,06,05,9.10
2010,06,29,06,06,9.10
2010,06,29,06,07,9.10
2010,06,29,06,08,9.10
2010,06,29,06,09,9.10
2010,06,29,06,10,9.10
2010,06,29,06,11,9.10
2010,06,29,06,12,9.10
2010,06,29,06,13,9.20
2010,06,29,06,14,9.20
2010,06,29,06,15,9.20
2010,06,29,06,16,9.20
2010,06,29,06,17,9.20
2010,06,29,06,18,9.20
2010,06,29,06,19,9.20
2010,06,29,06,20,9.30
2010,06,29,06,21,9.30
2010,06,29,06,22,9.20
2010,06,29,06,23,9.20
2010,06,29,06,24,9.20
2010,06,29,06,25,9.20
2010,06,29,06,26,9.20
2010,06,29,06,27,9.20
2010,06,29,06,28,9.20
2010,06,29,06,29,9.20
2010,06,29,06,30,9.20
2010,06,29,06,31,9.20
2010,06,29,06,32,9.20
2010,06,29,06,33,9.20
2010,06,29,06,34,9.20
2010,06,29,06,35,9.20
2010,06,29,06,36,9.20
2010,06,29,06,37,9.20
2010,06,29,06,38,9.30
2010,06,29,06,39,9.30
2010,06,29,06,40,9.30
2010,06,29,06,41,9.30
2010,06,29,06,42,9.30
2010,06,29,06,43,9.30
2010,06,29,06,44,9.40
2010,06,29,06,45,9.40
2010,06,29,06,46,9.40
2010,06,29,06,47,9.40
2010,06,29,06,48,9.40
2010,06,29,06,49,9.40
2010,06,29,06,50,9.40
2010,06,29,06,51,9.40
2010,06,29,06,52,9.30
2010,06,29,06,53,9.30
2010,06,29,06,54,9.30
2010,06,29,06,55,9.30
2010,06,29,06,56,9.30
2010,06,29,06,57,9.30
2010,06,29,06,58,9.30
2010,06,29,06,59,9.30
2010,06,29,07,00,9.30
2010,06,29,07,01,9.30
2010,06,29,07,02,9.30
2010,06,29,07,03,9.30
2010,06,29,07,04,9.30
2010,06,29,07,05,9.30
2010,06,29,07,06,9.30
2010,06,29,07,07,9.30
2010,06,29,07,08,9.30
2010,06,29,07,09,9.30
2010,06,29,07,10,9.30
2010,06,29,07,11,9.30
2010,06,29,07,12,9.30
2010,06,29,07,13,9.30
2010,06,29,07,14,9.40
2010,06,29,07,15,9.40
2010,06,29,07,16,9.40
2010,06,29,07,17,9.40
2010,06,29,07,18,9.40
2010,06,29,07,19,9.40
2010,06,29,07,20,9.40
2010,06,29,07,21,9.40
2010,06,29,07,22,9.50
2010,06,29,07,23,9.50
2010,06,29,07,24,9.50
2010,06,29,07,25,9.50
2010,06,29,07,26,9.50
2010,06,29,07,27,9.50
2010,06,29,07,28,9.50
2010,06,29,07,29,9.50
2010,06,29,07,30,9.50
2010,06,29,07,31,9.40
2010,06,29,07,32,9.40
2010,06,29,07,33,9.40
2010,06,29,07,34,9.40
2010,06,29,07,35,9.50
2010,06,29,07,36,9.50
2010,06,29,07,37,9.50
2010,06,29,07,38,9.50
2010,06,29,07,39,9.60
2010,06,29,07,40,9.70
2010,06,29,07,41,9.70
2010,06,29,07,42,9.70
2010,06,29,07,43,9.80
2010,06,29,07,44,9.90
2010,06,29,07,45,9.90
2010,06,29,07,46,9.90
2010,06,29,07,47,10.10
2010,06,29,07,48,10.10
2010,06,29,07,49,10.20
2010,06,29,07,50,10.30
2010,06,29,07,51,10.40
2010,06,29,07,52,10.50
2010,06,29,07,53,10.60
2010,06,29,07,54,10.70
2010,06,29,07,55,10.70
2010,06,29,07,56,10.80
2010,06,29,07,57,10.90
2010,06,29,07,58,10.90
2010,06,29,07,59,11.00
2010,06,29,08,00,11.10
2010,06,29,08,01,11.10
2010,06,29,08,02,11.20
2010,06,29,08,03,11.30
2010,06,29,08,04,11.30
2010,06,29,08,05,11.40
2010,06,29,08,06,11.40
2010,06,29,08,07,11.40
2010,06,29,08,08,11.40
2010,06,29,08,09,11.40
2010,06,29,08,10,11.50
2010,06,29,08,11,11.60
2010,06,29,08,12,11.60
2010,06,29,08,13,11.70
2010,06,29,08,14,11.80
2010,06,29,08,15,11.80
2010,06,29,08,16,11.80
2010,06,29,08,17,11.80
2010,06,29,08,18,11.90
2010,06,29,08,19,12.00
2010,06,29,08,20,12.00
2010,06,29,08,21,12.00
2010,06,29,08,22,12.10
2010,06,29,08,23,12.10
2010,06,29,08,24,12.20
2010,06,29,08,25,12.20
2010,06,29,08,26,12.30
2010,06,29,08,27,12.30
2010,06,29,08,28,12.30
2010,06,29,08,29,12.30
2010,06,29,08,30,12.30
2010,06,29,08,31,12.30
2010,06,29,08,32,12.30
2010,06,29,08,33,12.40
2010,06,29,08,34,12.40
2010,06,29,08,35,12.40
2010,06,29,08,36,12.40
2010,06,29,08,37,12.50
2010,06,29,08,38,12.50
2010,06,29,08,39,12.50
2010,06,29,08,40,12.60
2010,06,29,08,41,12.60
2010,06,29,08,42,12.70
2010,06,29,08,43,12.70
2010,06,29,08,44,12.80
2010,06,29,08,45,12.80
2010,06,29,08,46,12.90
2010,06,29,08,47,12.90
2010,06,29,08,48,13.00
2010,06,29,08,49,13.00
2010,06,29,08,50,13.10
2010,06,29,08,51,13.20
2010,06,29,08,52,13.30
2010,06,29,08,53,13.40
2010,06,29,08,54,13.50
2010,06,29,08,55,13.50
2010,06,29,08,56,13.50
2010,06,29,08,57,13.60
2010,06,29,08,58,13.60
2010,06,29,08,59,13.70
2010,06,29,09,00,13.70
2010,06,29,09,01,13.70
2010,06,29,09,02,13.70
2010,06,29,09,03,13.70
2010,06,29,09,04,13.80
2010,06,29,09,05,13.80
2010,06,29,09,06,13.90
2010,06,29,09,07,13.90
2010,06,29,09,08,13.90
2010,06,29,09,09,14.00
2010,06,29,09,10,14.00
2010,06,29,09,11,14.00
2010,06,29,09,12,14.00
2010,06,29,09,13,14.00
2010,06,29,09,14,14.00
2010,06,29,09,15,14.00
2010,06,29,09,16,14.00
2010,06,29,09,17,14.00
2010,06,29,09,18,14.00
2010,06,29,09,19,14.00
2010,06,29,09,20,14.00
2010,06,29,09,21,14.00
2010,06,29,09,22,14.10
2010,06,29,09,23,14.20
2010,06,29,09,24,14.20
2010,06,29,09,25,14.20
2010,06,29,09,26,14.20
2010,06,29,09,27,14.20
2010,06,29,09,28,14.30
2010,06,29,09,29,14.30
2010,06,29,09,30,14.40
2010,06,29,09,31,14.50
2010,06,29,09,32,14.50
2010,06,29,09,33,14.60
2010,06,29,09,34,14.60
2010,06,29,09,35,14.60
2010,06,29,09,36,14.60
2010,06,29,09,37,14.70
2010,06,29,09,38,14.70
2010,06,29,09,39,14.60
2010,06,29,09,40,14.70
2010,06,29,09,41,14.70
2010,06,29,09,42,14.70
2010,06,29,09,43,14.70
2010,06,29,09,44,14.70
2010,06,29,09,45,14.80
2010,06,29,09,46,14.80
2010,06,29,09,47,14.70
2010,06,29,09,48,14.70
2010,06,29,09,49,14.70
2010,06,29,09,50,14.70
2010,06,29,09,51,14.90
2010,06,29,09,52,15.00
2010,06,29,09,53,15.00
2010,06,29,09,54,15.10
2010,06,29,09,55,15.10
2010,06,29,09,56,15.10
2010,06,29,09,57,15.20
2010,06,29,09,58,15.10
2010,06,29,09,59,15.10
2010,06,29,10,00,15.20
2010,06,29,10,01,15.30
2010,06,29,10,02,15.30
2010,06,29,10,03,15.30
2010,06,29,10,04,15.30
2010,06,29,10,05,15.30
2010,06,29,10,06,15.30
2010,06,29,10,07,15.30
2010,06,29,10,08,15.30
2010,06,29,10,09,15.20
2010,06,29,10,10,15.20
2010,06,29,10,11,15.20
2010,06,29,10,12,15.20
2010,06,29,10,13,15.20
2010,06,29,10,14,15.10
2010,06,29,10,15,15.10
2010,06,29,10,16,15.10
2010,06,29,10,17,15.20
2010,06,29,10,18,15.30
2010,06,29,10,19,15.30
2010,06,29,10,20,15.40
2010,06,29,10,21,15.60
2010,06,29,10,22,15.60
2010,06,29,10,23,15.50
2010,06,29,10,24,15.50
2010,06,29,10,25,15.50
2010,06,29,10,26,15.50
2010,06,29,10,27,15.50
2010,06,29,10,28,15.50
2010,06,29,10,29,15.50
2010,06,29,10,30,15.60
2010,06,29,10,31,15.70
2010,06,29,10,32,15.80
2010,06,29,10,33,15.70
2010,06,29,10,34,15.80
2010,06,29,10,35,15.80
2010,06,29,10,36,15.80
2010,06,29,10,37,15.90
2010,06,29,10,38,15.90
2010,06,29,10,39,15.80
2010,06,29,10,40,15.80
2010,06,29,10,41,15.80
2010,06,29,10,42,15.80
2010,06,29,10,43,15.80
2010,06,29,10,44,15.80
2010,06,29,10,45,15.80
2010,06,29,10,46,15.80
2010,06,29,10,47,15.80
2010,06,29,10,48,15.90
2010,06,29,10,49,15.90
2010,06,29,10,50,16.00
2010,06,29,10,51,16.10
2010,06,29,10,52,16.20
2010,06,29,10,53,16.20
2010,06,29,10,54,16.20
2010,06,29,10,55,16.20
2010,06,29,10,56,16.20
2010,06,29,10,57,16.20
2010,06,29,10,58,16.20
2010,06,29,10,59,16.10
2010,06,29,11,00,16.10
2010,06,29,11,01,16.10
2010,06,29,11,02,16.10
2010,06,29,11,03,16.10
2010,06,29,11,04,16.10
2010,06,29,11,05,16.10
2010,06,29,11,06,16.10
2010,06,29,11,07,16.10
2010,06,29,11,08,16.10
2010,06,29,11,09,16.10
2010,06,29,11,10,16.10
2010,06,29,11,11,16.00
2010,06,29,11,12,15.90
2010,06,29,11,13,15.90
2010,06,29,11,14,16.00
2010,06,29,11,15,16.10
2010,06,29,11,16,16.10
2010,06,29,11,17,16.10
2010,06,29,11,18,16.30
2010,06,29,11,19,16.40
2010,06,29,11,20,16.30
2010,06,29,11,21,16.30
2010,06,29,11,22,16.30
2010,06,29,11,23,16.30
2010,06,29,11,24,16.30
2010,06,29,11,25,16.20
2010,06,29,11,26,16.10
2010,06,29,11,27,16.10
2010,06,29,11,28,16.00
2010,06,29,11,29,15.90
2010,06,29,11,30,15.80
2010,06,29,11,31,15.80
2010,06,29,11,32,15.80
2010,06,29,11,33,15.80
2010,06,29,11,34,15.60
2010,06,29,11,35,15.50
2010,06,29,11,36,15.50
2010,06,29,11,37,15.40
2010,06,29,11,38,15.30
2010,06,29,11,39,15.30
2010,06,29,11,40,15.30
2010,06,29,11,41,15.30
2010,06,29,11,42,15.30
2010,06,29,11,43,15.30
2010,06,29,11,44,15.30
2010,06,29,11,45,15.30
2010,06,29,11,46,15.20
2010,06,29,11,47,15.10
2010,06,29,11,48,15.10
2010,06,29,11,49,15.10
2010,06,29,11,50,15.20
2010,06,29,11,51,15.20
2010,06,29,11,52,15.20
2010,06,29,11,53,15.20
2010,06,29,11,54,15.20
2010,06,29,11,55,15.10
2010,06,29,11,56,15.20
2010,06,29,11,57,15.20
2010,06,29,11,58,15.20
2010,06,29,11,59,15.20
2010,06,29,12,00,15.20
2010,06,29,12,01,15.20
2010,06,29,12,02,15.30
2010,06,29,12,03,15.30
2010,06,29,12,04,15.30
2010,06,29,12,05,15.30
2010,06,29,12,06,15.30
2010,06,29,12,07,15.30
2010,06,29,12,08,15.30
2010,06,29,12,09,15.20
2010,06,29,12,10,15.20
2010,06,29,12,11,15.20
2010,06,29,12,12,15.30
2010,06,29,12,13,15.30
2010,06,29,12,14,15.40
2010,06,29,12,15,15.50
2010,06,29,12,16,15.50
2010,06,29,12,17,15.50
2010,06,29,12,18,15.50
2010,06,29,12,19,15.60
2010,06,29,12,20,15.60
2010,06,29,12,21,15.60
2010,06,29,12,22,15.70
2010,06,29,12,23,15.70
2010,06,29,12,24,15.70
2010,06,29,12,25,15.80
2010,06,29,12,26,15.80
2010,06,29,12,27,15.80
2010,06,29,12,28,15.80
2010,06,29,12,29,15.80
2010,06,29,12,30,15.80
2010,06,29,12,31,15.80
2010,06,29,12,32,15.80
2010,06,29,12,33,15.70
2010,06,29,12,34,15.70
2010,06,29,12,35,15.60
2010,06,29,12,36,15.60
2010,06,29,12,37,15.60
2010,06,29,12,38,15.60
2010,06,29,12,39,15.60
2010,06,29,12,40,15.50
2010,06,29,12,41,15.50
2010,06,29,12,42,15.60
2010,06,29,12,43,15.70
2010,06,29,12,44,15.80
2010,06,29,12,45,15.80
2010,06,29,12,46,15.80
2010,06,29,12,47,15.80
2010,06,29,12,48,15.80
2010,06,29,12,49,16.00
2010,06,29,12,50,16.10
2010,06,29,12,51,16.10
2010,06,29,12,52,16.00
2010,06,29,12,53,15.90
2010,06,29,12,54,15.90
2010,06,29,12,55,15.90
2010,06,29,12,56,16.00
2010,06,29,12,57,16.10
2010,06,29,12,58,16.10
2010,06,29,12,59,16.10
2010,06,29,13,00,16.10
2010,06,29,13,01,16.10
2010,06,29,13,02,16.10
2010,06,29,13,03,16.20
2010,06,29,13,04,16.10
2010,06,29,13,05,16.20
2010,06,29,13,06,16.10
2010,06,29,13,07,16.20
2010,06,29,13,08,16.20
2010,06,29,13,09,16.30
2010,06,29,13,10,16.30
2010,06,29,13,11,16.30
2010,06,29,13,12,16.30
2010,06,29,13,13,16.40
2010,06,29,13,14,16.40
2010,06,29,13,15,16.30
2010,06,29,13,16,16.30
2010,06,29,13,17,16.40
2010,06,29,13,18,16.40
2010,06,29,13,19,16.40
2010,06,29,13,20,16.40
2010,06,29,13,21,16.50
2010,06,29,13,22,16.60
2010,06,29,13,23,16.70
2010,06,29,13,24,16.70
2010,06,29,13,25,16.90
2010,06,29,13,26,17.00
2010,06,29,13,27,17.00
2010,06,29,13,28,17.00
2010,06,29,13,29,16.90
2010,06,29,13,30,16.80
2010,06,29,13,31,16.80
2010,06,29,13,32,16.80
2010,06,29,13,33,16.80
2010,06,29,13,34,16.90
2010,06,29,13,35,16.90
2010,06,29,13,36,17.00
2010,06,29,13,37,17.00
2010,06,29,13,38,16.90
2010,06,29,13,39,16.80
2010,06,29,13,40,16.80
2010,06,29,13,41,16.70
2010,06,29,13,42,16.70
2010,06,29,13,43,16.70
2010,06,29,13,44,16.80
2010,06,29,13,45,16.90
2010,06,29,13,46,16.90
2010,06,29,13,47,17.00
2010,06,29,13,48,17.10
2010,06,29,13,49,17.10
2010,06,29,13,50,17.20
2010,06,29,13,51,17.30
2010,06,29,13,52,17.30
2010,06,29,13,53,17.30
2010,06,29,13,54,17.20
2010,06,29,13,55,17.30
2010,06,29,13,56,17.30
2010,06,29,13,57,17.30
2010,06,29,13,58,17.30
2010,06,29,13,59,17.30
2010,06,29,14,00,17.40
2010,06,29,14,01,17.50
2010,06,29,14,02,17.60
2010,06,29,14,03,17.70
2010,06,29,14,04,17.70
2010,06,29,14,05,17.70
2010,06,29,14,06,17.70
2010,06,29,14,07,17.80
2010,06,29,14,08,17.90
2010,06,29,14,09,17.90
2010,06,29,14,10,17.90
2010,06,29,14,11,17.90
2010,06,29,14,12,17.90
2010,06,29,14,13,17.90
2010,06,29,14,14,17.90
2010,06,29,14,15,17.80
2010,06,29,14,16,17.70
2010,06,29,14,17,17.50
2010,06,29,14,18,17.40
2010,06,29,14,19,17.30
2010,06,29,14,20,17.30
2010,06,29,14,21,17.30
2010,06,29,14,22,17.20
2010,06,29,14,23,17.20
2010,06,29,14,24,17.30
2010,06,29,14,25,17.30
2010,06,29,14,26,17.30
2010,06,29,14,27,17.20
2010,06,29,14,28,17.00
2010,06,29,14,29,17.00
2010,06,29,14,30,16.90
2010,06,29,14,31,16.90
2010,06,29,14,32,16.80
2010,06,29,14,33,16.80
2010,06,29,14,34,16.90
2010,06,29,14,35,16.90
2010,06,29,14,36,16.90
2010,06,29,14,37,16.80
2010,06,29,14,38,16.90
2010,06,29,14,39,16.90
2010,06,29,14,40,16.90
2010,06,29,14,41,17.10
2010,06,29,14,42,17.30
2010,06,29,14,43,17.30
2010,06,29,14,44,17.30
2010,06,29,14,45,17.30
2010,06,29,14,46,17.40
2010,06,29,14,47,17.50
2010,06,29,14,48,17.50
2010,06,29,14,49,17.50
2010,06,29,14,50,17.50
2010,06,29,14,51,17.40
2010,06,29,14,52,17.30
2010,06,29,14,53,17.20
2010,06,29,14,54,17.00
2010,06,29,14,55,17.00
2010,06,29,14,56,16.90
2010,06,29,14,57,16.90
2010,06,29,14,58,16.90
2010,06,29,14,59,16.80
2010,06,29,15,00,16.80
2010,06,29,15,01,16.80
2010,06,29,15,02,16.70
2010,06,29,15,03,16.60
2010,06,29,15,04,16.60
2010,06,29,15,05,16.60
2010,06,29,15,06,16.50
2010,06,29,15,07,16.50
2010,06,29,15,08,16.40
2010,06,29,15,09,16.40
2010,06,29,15,10,16.30
2010,06,29,15,11,16.20
2010,06,29,15,12,16.10
2010,06,29,15,13,16.00
2010,06,29,15,14,15.90
2010,06,29,15,15,15.90
2010,06,29,15,16,16.00
2010,06,29,15,17,16.10
2010,06,29,15,18,16.10
2010,06,29,15,19,16.10
2010,06,29,15,20,16.10
2010,06,29,15,21,16.10
2010,06,29,15,22,16.10
2010,06,29,15,23,16.10
2010,06,29,15,24,16.10
2010,06,29,15,25,16.00
2010,06,29,15,26,15.90
2010,06,29,15,27,15.90
2010,06,29,15,28,15.80
2010,06,29,15,29,15.90
2010,06,29,15,30,15.90
2010,06,29,15,31,16.10
2010,06,29,15,32,16.10
2010,06,29,15,33,16.10
2010,06,29,15,34,16.00
2010,06,29,15,35,15.90
2010,06,29,15,36,15.90
2010,06,29,15,37,15.90
2010,06,29,15,38,15.80
2010,06,29,15,39,15.70
2010,06,29,15,40,15.70
2010,06,29,15,41,15.70
2010,06,29,15,42,15.80
2010,06,29,15,43,15.80
2010,06,29,15,44,15.80
2010,06,29,15,45,15.80
2010,06,29,15,46,15.80
2010,06,29,15,47,15.80
2010,06,29,15,48,15.70
2010,06,29,15,49,15.60
2010,06,29,15,50,15.60
2010,06,29,15,51,15.60
2010,06,29,15,52,15.40
2010,06,29,15,53,15.30
2010,06,29,15,54,15.30
2010,06,29,15,55,15.10
2010,06,29,15,56,15.10
2010,06,29,15,57,15.10
2010,06,29,15,58,15.00
2010,06,29,15,59,14.90
2010,06,29,16,00,14.90
2010,06,29,16,01,14.90
2010,06,29,16,02,14.90
2010,06,29,16,03,14.80
2010,06,29,16,04,14.80
2010,06,29,16,05,14.80
2010,06,29,16,06,14.80
2010,06,29,16,07,14.80
2010,06,29,16,08,14.80
2010,06,29,16,09,14.70
2010,06,29,16,10,14.60
2010,06,29,16,11,14.50
2010,06,29,16,12,14.40
2010,06,29,16,13,14.20
2010,06,29,16,14,14.10
2010,06,29,16,15,14.00
2010,06,29,16,16,13.90
2010,06,29,16,17,13.90
2010,06,29,16,18,13.90
2010,06,29,16,19,14.00
2010,06,29,16,20,14.00
2010,06,29,16,21,13.90
2010,06,29,16,22,13.90
2010,06,29,16,23,13.80
2010,06,29,16,24,13.80
2010,06,29,16,25,13.80
2010,06,29,16,26,13.80
2010,06,29,16,27,13.80
2010,06,29,16,28,13.80
2010,06,29,16,29,13.80
2010,06,29,16,30,13.90
2010,06,29,16,31,13.90
2010,06,29,16,32,13.90
2010,06,29,16,33,13.90
2010,06,29,16,34,13.80
2010,06,29,16,35,13.80
2010,06,29,16,36,13.80
2010,06,29,16,37,13.80
2010,06,29,16,38,13.80
2010,06,29,16,39,13.80
2010,06,29,16,40,13.90
2010,06,29,16,41,13.90
2010,06,29,16,42,14.00
2010,06,29,16,43,14.00
2010,06,29,16,44,14.10
2010,06,29,16,45,14.10
2010,06,29,16,46,14.10
2010,06,29,16,47,14.20
2010,06,29,16,48,14.20
2010,06,29,16,49,14.20
2010,06,29,16,50,14.20
2010,06,29,16,51,14.20
2010,06,29,16,52,14.30
2010,06,29,16,53,14.40
2010,06,29,16,54,14.50
2010,06,29,16,55,14.70
2010,06,29,16,56,14.80
2010,06,29,16,57,15.00
2010,06,29,16,58,15.20
2010,06,29,16,59,15.30
2010,06,29,17,00,15.40
2010,06,29,17,01,15.60
2010,06,29,17,02,15.70
2010,06,29,17,03,15.70
2010,06,29,17,04,15.70
2010,06,29,17,05,15.60
2010,06,29,17,06,15.60
2010,06,29,17,07,15.50
2010,06,29,17,08,15.50
2010,06,29,17,09,15.50
2010,06,29,17,10,15.30
2010,06,29,17,11,15.20
2010,06,29,17,12,15.10
2010,06,29,17,13,14.80
2010,06,29,17,14,14.60
2010,06,29,17,15,14.60
2010,06,29,17,16,14.40
2010,06,29,17,17,14.30
2010,06,29,17,18,14.30
2010,06,29,17,19,14.30
2010,06,29,17,20,14.30
2010,06,29,17,21,14.30
2010,06,29,17,22,14.40
2010,06,29,17,23,14.40
2010,06,29,17,24,14.50
2010,06,29,17,25,14.50
2010,06,29,17,26,14.50
2010,06,29,17,27,14.50
2010,06,29,17,28,14.50
2010,06,29,17,29,14.50